EZY930 EGPE-EGBB

Flight info

Callsign EZY930
Flight time 0h 57m
Altitude 33000
Route GUSSI DCT NESDI N560 ERSON DCT AKOMU DCT VAMEB UL612 CROFT
Aircraft A320/M-SDE3FGHIRWY/LB1

Departure

Time 2026-04-30 19:21
Airport Inverness Airport (EGPE)

Arrival

Time 2026-04-30 20:19
Airport Birmingham Airport (EGBB)
Time Latitude Longitude Altitude Speed Heading
2026-04-30 18:40 57.53929 -4.06264 36 ft 0 kts 275°
2026-04-30 19:13 57.53929 -4.06262 36 ft 2 kts 275°
2026-04-30 19:13 57.53928 -4.06232 34 ft 2 kts 274°
2026-04-30 19:14 57.53927 -4.06201 33 ft 2 kts 268°
2026-04-30 19:14 57.53929 -4.06170 35 ft 2 kts 218°
2026-04-30 19:14 57.53941 -4.06161 32 ft 1 kts 185°
2026-04-30 19:14 57.53942 -4.06161 32 ft 0 kts 184°
2026-04-30 19:16 57.53938 -4.06161 32 ft 3 kts 185°
2026-04-30 19:16 57.53896 -4.06169 36 ft 8 kts 186°
2026-04-30 19:16 57.53770 -4.06141 35 ft 11 kts 128°
2026-04-30 19:17 57.53733 -4.06033 40 ft 8 kts 122°
2026-04-30 19:17 57.53759 -4.05821 40 ft 13 kts 49°
2026-04-30 19:17 57.53828 -4.05670 40 ft 18 kts 50°
2026-04-30 19:18 57.53959 -4.05386 39 ft 24 kts 49°
2026-04-30 19:18 57.54116 -4.05046 35 ft 28 kts 49°
2026-04-30 19:18 57.54234 -4.04789 35 ft 24 kts 49°
2026-04-30 19:19 57.54326 -4.04590 35 ft 20 kts 49°
2026-04-30 19:19 57.54422 -4.04382 34 ft 22 kts 49°
2026-04-30 19:19 57.54648 -4.03891 30 ft 27 kts 49°
2026-04-30 19:20 57.54750 -4.03670 30 ft 16 kts 49°
2026-04-30 19:20 57.54791 -4.03581 31 ft 3 kts 128°
2026-04-30 19:20 57.54697 -4.03782 30 ft 54 kts 229°
2026-04-30 19:21 57.54272 -4.04706 36 ft 130 kts 229°
2026-04-30 19:21 57.52848 -4.07798 1180 ft 164 kts 227°
2026-04-30 19:22 57.50806 -4.10072 2109 ft 199 kts 184°
2026-04-30 19:22 57.46010 -4.10327 3846 ft 247 kts 183°
2026-04-30 19:23 57.40745 -4.10694 6480 ft 259 kts 183°
2026-04-30 19:24 57.37107 -4.11004 8216 ft 262 kts 184°
2026-04-30 19:24 57.35270 -4.11168 9094 ft 264 kts 184°
2026-04-30 19:24 57.31586 -4.11502 10633 ft 275 kts 183°
2026-04-30 19:25 57.25297 -4.12065 12012 ft 315 kts 183°
2026-04-30 19:26 57.20855 -4.12482 13486 ft 322 kts 185°
2026-04-30 19:26 57.16391 -4.13451 14862 ft 327 kts 188°
2026-04-30 19:26 57.14133 -4.14064 15502 ft 330 kts 188°
2026-04-30 19:27 57.09548 -4.15309 16784 ft 335 kts 188°
2026-04-30 19:27 57.04874 -4.16496 18043 ft 341 kts 187°
2026-04-30 19:28 57.02539 -4.17068 18648 ft 344 kts 187°
2026-04-30 19:28 56.97754 -4.18236 19751 ft 349 kts 187°
2026-04-30 19:29 56.92914 -4.19412 20862 ft 353 kts 187°
2026-04-30 19:29 56.90470 -4.20005 21424 ft 355 kts 187°
2026-04-30 19:30 56.83076 -4.21800 23075 ft 362 kts 187°
2026-04-30 19:30 56.78055 -4.23015 24067 ft 366 kts 187°
2026-04-30 19:31 56.72962 -4.24258 24901 ft 371 kts 187°
2026-04-30 19:31 56.70420 -4.24872 25298 ft 373 kts 187°
2026-04-30 19:31 56.65233 -4.26116 26061 ft 377 kts 187°
2026-04-30 19:32 56.62619 -4.26747 26427 ft 380 kts 187°
2026-04-30 19:32 56.59982 -4.27387 26797 ft 382 kts 187°
2026-04-30 19:32 56.57335 -4.28026 27140 ft 385 kts 187°
2026-04-30 19:32 56.54699 -4.28650 27485 ft 387 kts 187°
2026-04-30 19:33 56.52024 -4.29279 27835 ft 389 kts 187°
2026-04-30 19:33 56.49330 -4.29898 28187 ft 391 kts 185°
2026-04-30 19:33 56.46600 -4.29932 28532 ft 393 kts 175°
2026-04-30 19:33 56.43893 -4.29080 28839 ft 397 kts 166°
2026-04-30 19:34 56.41260 -4.27480 29146 ft 400 kts 162°
2026-04-30 19:34 56.38623 -4.25787 29462 ft 402 kts 162°
2026-04-30 19:34 56.33343 -4.22411 30083 ft 406 kts 162°
2026-04-30 19:35 56.30672 -4.20714 30375 ft 407 kts 162°
2026-04-30 19:35 56.28022 -4.19039 30609 ft 409 kts 162°
2026-04-30 19:35 56.25315 -4.17338 30840 ft 411 kts 163°
2026-04-30 19:35 56.22606 -4.15639 31070 ft 413 kts 163°
2026-04-30 19:36 56.19886 -4.13934 31280 ft 414 kts 162°
2026-04-30 19:36 56.17155 -4.12219 31492 ft 416 kts 162°
2026-04-30 19:36 56.11739 -4.08821 32072 ft 415 kts 162°
2026-04-30 19:37 56.09009 -4.07109 32341 ft 415 kts 162°
2026-04-30 19:37 56.06305 -4.05417 32619 ft 415 kts 162°
2026-04-30 19:37 56.03575 -4.03713 32911 ft 414 kts 162°
2026-04-30 19:37 56.00848 -4.02017 33149 ft 415 kts 162°
2026-04-30 19:38 55.95472 -3.98676 33201 ft 402 kts 162°
2026-04-30 19:38 55.90205 -3.95430 33206 ft 400 kts 162°
2026-04-30 19:39 55.84988 -3.92204 33199 ft 399 kts 162°
2026-04-30 19:39 55.79741 -3.88962 33204 ft 398 kts 162°
2026-04-30 19:40 55.74521 -3.85756 33202 ft 398 kts 162°
2026-04-30 19:40 55.69282 -3.82543 33203 ft 397 kts 162°
2026-04-30 19:41 55.64048 -3.79341 33197 ft 397 kts 162°
2026-04-30 19:41 55.58834 -3.76167 33195 ft 396 kts 162°
2026-04-30 19:42 55.53650 -3.73011 33191 ft 396 kts 162°
2026-04-30 19:42 55.48428 -3.69861 33195 ft 395 kts 163°
2026-04-30 19:43 55.43228 -3.66720 33198 ft 395 kts 162°
2026-04-30 19:44 55.35452 -3.62047 33188 ft 394 kts 163°
2026-04-30 19:44 55.30243 -3.58939 33185 ft 395 kts 162°
2026-04-30 19:45 55.25032 -3.55823 33183 ft 395 kts 162°
2026-04-30 19:45 55.19856 -3.52729 33189 ft 396 kts 162°
2026-04-30 19:46 55.14620 -3.49605 33177 ft 396 kts 162°
2026-04-30 19:46 55.09387 -3.46490 33179 ft 397 kts 162°
2026-04-30 19:47 55.04181 -3.43418 33184 ft 398 kts 163°
2026-04-30 19:47 54.98924 -3.40334 33182 ft 398 kts 162°
2026-04-30 19:48 54.93692 -3.37255 33173 ft 398 kts 162°
2026-04-30 19:48 54.88429 -3.34162 33177 ft 399 kts 162°
2026-04-30 19:49 54.83160 -3.31083 33181 ft 399 kts 162°
2026-04-30 19:49 54.75251 -3.26467 33186 ft 400 kts 162°
2026-04-30 19:50 54.70005 -3.23416 33180 ft 400 kts 162°
2026-04-30 19:50 54.64713 -3.20356 33188 ft 400 kts 163°
2026-04-30 19:51 54.59428 -3.17312 33188 ft 399 kts 163°
2026-04-30 19:51 54.54194 -3.14295 33188 ft 399 kts 162°
2026-04-30 19:52 54.48919 -3.11253 33189 ft 399 kts 162°
2026-04-30 19:52 54.43645 -3.08230 33187 ft 399 kts 163°
2026-04-30 19:53 54.38396 -3.05237 33190 ft 399 kts 163°
2026-04-30 19:53 54.33114 -3.02234 33185 ft 399 kts 163°
2026-04-30 19:54 54.27824 -2.99225 33183 ft 400 kts 162°
2026-04-30 19:54 54.22563 -2.96241 33188 ft 400 kts 163°
2026-04-30 19:55 54.17269 -2.93243 33190 ft 400 kts 162°
2026-04-30 19:55 54.12069 -2.89752 33189 ft 401 kts 158°
2026-04-30 19:56 54.06992 -2.85896 33185 ft 401 kts 157°
2026-04-30 19:56 54.01886 -2.82048 32952 ft 398 kts 158°
2026-04-30 19:57 53.99350 -2.80186 32683 ft 395 kts 158°
2026-04-30 19:57 53.96824 -2.78351 32416 ft 392 kts 158°
2026-04-30 19:57 53.94342 -2.76561 32157 ft 390 kts 158°
2026-04-30 19:57 53.91838 -2.74766 31894 ft 388 kts 158°
2026-04-30 19:58 53.89363 -2.72990 31642 ft 386 kts 158°
2026-04-30 19:58 53.86899 -2.71217 31220 ft 381 kts 158°
2026-04-30 19:58 53.84464 -2.69465 30721 ft 378 kts 158°
2026-04-30 19:58 53.82079 -2.67748 30216 ft 376 kts 158°
2026-04-30 19:59 53.79674 -2.66021 29677 ft 372 kts 158°
2026-04-30 19:59 53.77299 -2.64315 29194 ft 368 kts 158°
2026-04-30 19:59 53.72631 -2.60972 28255 ft 359 kts 158°
2026-04-30 20:00 53.70365 -2.59354 27803 ft 355 kts 158°
2026-04-30 20:00 53.68094 -2.57738 27363 ft 351 kts 158°
2026-04-30 20:00 53.65976 -2.56231 26955 ft 348 kts 158°
2026-04-30 20:00 53.63754 -2.54648 26537 ft 345 kts 158°
2026-04-30 20:01 53.59621 -2.50722 25684 ft 340 kts 150°
2026-04-30 20:01 53.57611 -2.48646 25270 ft 337 kts 150°
2026-04-30 20:01 53.55633 -2.46611 24834 ft 335 kts 150°
2026-04-30 20:02 53.51681 -2.42554 23958 ft 331 kts 150°
2026-04-30 20:02 53.49717 -2.40543 23472 ft 329 kts 150°
2026-04-30 20:03 53.45846 -2.36588 22560 ft 324 kts 150°
2026-04-30 20:03 53.43932 -2.34627 22117 ft 321 kts 150°
2026-04-30 20:03 53.42033 -2.32682 21680 ft 319 kts 150°
2026-04-30 20:03 53.40138 -2.30750 21241 ft 317 kts 150°
2026-04-30 20:04 53.38250 -2.28829 20805 ft 316 kts 150°
2026-04-30 20:04 53.37003 -2.27561 20517 ft 315 kts 150°
2026-04-30 20:04 53.34508 -2.25057 19926 ft 316 kts 151°
2026-04-30 20:05 53.31296 -2.22052 19137 ft 318 kts 152°
2026-04-30 20:05 53.29348 -2.20285 18669 ft 319 kts 152°
2026-04-30 20:05 53.25435 -2.16730 17671 ft 319 kts 152°
2026-04-30 20:06 53.23481 -2.14946 17201 ft 319 kts 152°
2026-04-30 20:06 53.21535 -2.13159 16736 ft 318 kts 152°
2026-04-30 20:06 53.19623 -2.11395 16265 ft 318 kts 152°
2026-04-30 20:06 53.17681 -2.09607 15795 ft 318 kts 152°
2026-04-30 20:07 53.15736 -2.07822 15331 ft 317 kts 152°
2026-04-30 20:07 53.13828 -2.06071 14855 ft 310 kts 152°
2026-04-30 20:07 53.10122 -2.02681 13954 ft 298 kts 152°
2026-04-30 20:08 53.08309 -2.01028 13483 ft 297 kts 152°
2026-04-30 20:08 53.06493 -1.99370 13041 ft 297 kts 152°
2026-04-30 20:08 53.04657 -1.97875 12605 ft 296 kts 161°
2026-04-30 20:08 53.02654 -1.97102 12166 ft 296 kts 174°
2026-04-30 20:09 53.00601 -1.96834 11722 ft 295 kts 175°
2026-04-30 20:09 52.98546 -1.96572 11291 ft 295 kts 175°
2026-04-30 20:09 52.94475 -1.96044 10427 ft 295 kts 175°
2026-04-30 20:10 52.90504 -1.95524 10050 ft 273 kts 175°
2026-04-30 20:10 52.88637 -1.95281 9471 ft 267 kts 175°
2026-04-30 20:10 52.86788 -1.95042 8856 ft 266 kts 175°
2026-04-30 20:11 52.83117 -1.94565 8000 ft 263 kts 174°
2026-04-30 20:11 52.81293 -1.94327 7593 ft 263 kts 174°
2026-04-30 20:11 52.79496 -1.94094 7201 ft 262 kts 174°
2026-04-30 20:12 52.75891 -1.93615 6236 ft 259 kts 174°
2026-04-30 20:12 52.74097 -1.93376 5836 ft 258 kts 174°
2026-04-30 20:12 52.72312 -1.93145 5484 ft 255 kts 175°
2026-04-30 20:13 52.70555 -1.92921 5213 ft 249 kts 175°
2026-04-30 20:13 52.68870 -1.92706 4950 ft 243 kts 175°
2026-04-30 20:13 52.67229 -1.92495 4692 ft 229 kts 175°
2026-04-30 20:13 52.65652 -1.92293 4430 ft 224 kts 174°
2026-04-30 20:14 52.64114 -1.92095 4183 ft 218 kts 174°
2026-04-30 20:14 52.62617 -1.91899 3934 ft 212 kts 174°
2026-04-30 20:14 52.61198 -1.91545 3686 ft 207 kts 162°
2026-04-30 20:14 52.59909 -1.90635 3486 ft 194 kts 155°
2026-04-30 20:15 52.58745 -1.89605 3265 ft 185 kts 150°
2026-04-30 20:15 52.57667 -1.88483 3041 ft 182 kts 148°
2026-04-30 20:15 52.56625 -1.87340 2828 ft 177 kts 147°
2026-04-30 20:15 52.55629 -1.86233 2565 ft 172 kts 146°
2026-04-30 20:16 52.54656 -1.85146 2334 ft 166 kts 146°
2026-04-30 20:16 52.53727 -1.84108 2114 ft 156 kts 145°
2026-04-30 20:16 52.52869 -1.83152 1905 ft 142 kts 144°
2026-04-30 20:16 52.52071 -1.82260 1752 ft 136 kts 144°
2026-04-30 20:17 52.51297 -1.81393 1557 ft 133 kts 143°
2026-04-30 20:17 52.50539 -1.80547 1363 ft 133 kts 143°
2026-04-30 20:17 52.49772 -1.79690 1183 ft 135 kts 145°
2026-04-30 20:17 52.49000 -1.78831 989 ft 132 kts 143°
2026-04-30 20:18 52.48241 -1.77985 799 ft 132 kts 144°
2026-04-30 20:18 52.47481 -1.77137 638 ft 132 kts 143°
2026-04-30 20:18 52.46728 -1.76295 454 ft 130 kts 143°
2026-04-30 20:18 52.45983 -1.75465 316 ft 123 kts 144°
2026-04-30 20:19 52.45409 -1.74826 324 ft 74 kts 146°
2026-04-30 20:19 52.45122 -1.74509 329 ft 26 kts 146°
2026-04-30 20:19 52.45008 -1.74382 326 ft 18 kts 146°
2026-04-30 20:19 52.44944 -1.74292 328 ft 12 kts 112°
2026-04-30 20:20 52.44959 -1.74162 328 ft 9 kts 75°
2026-04-30 20:20 52.44977 -1.74042 325 ft 14 kts 76°
2026-04-30 20:20 52.45004 -1.73909 324 ft 13 kts 60°
2026-04-30 20:20 52.45058 -1.73778 323 ft 13 kts 56°
2026-04-30 20:21 52.45104 -1.73672 323 ft 10 kts 112°
2026-04-30 20:21 52.45072 -1.73600 323 ft 4 kts 127°
2026-04-30 20:21 52.45067 -1.73590 323 ft 0 kts 127°